map of LBV home
LBV - Airport
Location
City:  Libreville, Estuaire, Gabon
Name:Léon M'Ba International Airport
ICAO:FOOL
IATA:LBV

Details
Type:Airport (Aerodrome, Airfield)
Use:Public/Civil, International (customs port of entry)
Latitude:0°27'30"N (0.458333)
Longitude:9°24'44"E (9.412222)
Elevation:39 ft (12 m)
Variation:2.05°W (WMM2015 magnetic declination)
0.13° annual change
Runways:1
Longest:9843 × 148 ft (3000 × 45 m)

Time
Time Zone:UTC+1
Local Time:

Weather
METAR:FOOL 231200Z 22004KT 200V280 9999 SCT012 29/25 Q1011 NOSIG
TAF:FOOL 231100Z 2312/2418 22006KT 8000 SCT013
TEMPO 2316/2324 4000 TSSHRA BKN008 FEW018CB OVC030 PROB30
TEMPO 2404/2409 3000 TSSHRA BKN008 FEW018CB OVC030

Related Locations
Nearby:
Farthest:CIS: 12257 mi / 19725 km
Kanton Island (Canton Island, Abariringa Island) [Canton Island Airport], P, KI

Find:

   beyond  
but within

Other Information
Maps:
NOTAMs:
Links:
Sources:

  
flag of Gabon   

Sectional Chart

Flight Planning
at skyvector.com

Satellite Image

Google Maps Satellite view

 

Copyright © 2004-2017 Karl L. Swartz. All rights reserved.
The Great Circle Mapper name and logo are trademarks of the Great Circle Mapper.
All other trademarks mentioned herein belong to their respective owners.
Please see credits for attibutions and further copyright information.

  Follow gcmap on Facebook Follow gcmap on Twitter Follow gcmap on Google+ GCmap on LinkedIn

hCard Microformat

Geo Microformat